This is the latest recevied weather packets stored in our database for station/object Krupka. If no packets are shown the sender has not sent any weather packets the latest 1 day(s).
| Time | Temp. | Humidity | Pressure | Rain* | Wind** | Luminosity | Snow |
|---|---|---|---|---|---|---|---|
| 1778000104 | 13.89° C | 77% | - | - | 5.81 m/s, 17° | - | - |
| 1777999803 | 13.89° C | 76% | - | - | 5.81 m/s, 4° | - | - |
| 1777999504 | 13.89° C | 76% | - | - | 7.15 m/s, 5° | - | - |
| 1777999203 | 13.89° C | 75% | - | - | 5.81 m/s, 31° | - | - |
| 1777998904 | 13.89° C | 75% | - | - | 8.05 m/s, 13° | - | - |
| 1777998604 | 13.89° C | 74% | - | - | 8.05 m/s, 24° | - | - |
| 1777998303 | 13.89° C | 75% | - | - | 7.15 m/s, 13° | - | - |
| 1777998003 | 13.89° C | 75% | - | - | 5.81 m/s, 13° | - | - |
| 1777997704 | 13.89° C | 75% | - | - | 5.81 m/s, 6° | - | - |
| 1777997403 | 13.89° C | 75% | - | - | 5.81 m/s, 16° | - | - |
| 1777997103 | 13.89° C | 75% | - | - | 7.15 m/s, 9° | - | - |
| 1777996803 | 13.89° C | 75% | - | - | 5.81 m/s, 12° | - | - |
| 1777996503 | 13.89° C | 75% | - | - | 5.81 m/s, 10° | - | - |
| 1777996203 | 13.89° C | 75% | - | - | 5.81 m/s, 6° | - | - |
| 1777995903 | 13.89° C | 75% | - | - | 7.15 m/s, 7° | - | - |
| 1777995603 | 15° C | 75% | - | - | 7.15 m/s, 7° | - | - |
| 1777995003 | 15° C | 75% | - | - | 5.81 m/s, 16° | - | - |
| 1777994703 | 15° C | 75% | - | - | 7.15 m/s, 7° | - | - |
| 1777994405 | 15° C | 75% | - | - | 5.81 m/s, 9° | - | - |
| 1777994103 | 15° C | 75% | - | - | 4.92 m/s, 3° | - | - |
| 1777993803 | 15° C | 75% | - | - | 5.81 m/s, 8° | - | - |
| 1777993504 | 15° C | 75% | - | - | 5.81 m/s, 10° | - | - |
| 1777993203 | 15° C | 75% | - | - | 5.81 m/s, 18° | - | - |
| 1777992904 | 15° C | 75% | - | - | 4.92 m/s, 2° | - | - |
| 1777992610 | 15° C | 75% | - | - | 4.92 m/s, 10° | - | - |
* Rain since midnight (hover to see other rain measurements)
** Current wind speed in m/s (hover to see current wind gust speed)